Winter Haven, FL

8:42 AM EST on December 17, 2017 (GMT -0500)
Winter Haven's-Gilbert

Weather History for KGIF - December, 2017

Change the Weather History Date:

Thursday, December 7, 2017

  Actual Average Record
Temperature  
Mean Temperature 70 °F -  
Max Temperature 75 °F 75 °F 86 °F (1971)
Min Temperature 64 °F 53 °F 34 °F (2010)
Cooling Degree Days 4    
Growing Degree Days 20 (Base 50)    
Moisture  
Dew Point 67 °F    
Average Humidity 95    
Maximum Humidity 100    
Minimum Humidity 76    
Precipitation  
Precipitation 0.04 in - - ()
Sea Level Pressure  
Sea Level Pressure 30.03 in    
Wind  
Wind Speed 2 mph (ENE)    
Max Wind Speed 9 mph    
Max Gust Speed -    
Visibility 4 miles    
Events Fog , Rain    
Averages and records for this station are not official NWS values.
T = Trace of Precipitation, MM = Missing Value Source: NWS Daily Summary

Daily Weather History Graph

Daily Weather History Graph

Search for Another Location

Airport or City:

Trip Planner

Search our weather history database for the weather conditions in past years. The results will help you decide how hot, cold, wet, or windy it might be!

Date:

Astronomy

Dec. 07, 2017 Rise Set
Actual Time 7:05 AM EST 5:31 PM EST
Civil Twilight 6:40 AM EST 5:57 PM EST
Nautical Twilight 6:11 AM EST 6:26 PM EST
Astronomical Twilight 5:42 AM EST 6:54 PM EST
Moon 10:07 PM EST (12/7) 10:51 AM EST (12/7)
Length of Visible Light 11h 16m
Length of Day
10h 25m
Waning Gibbous, 78% of the Moon is Illuminated
Dec 7
Waning Gibbous
Dec 10
Last Quarter
Dec 18
New
Dec 26
First Quarter
Jan 1
Full

Hourly Weather History & Observations

Time (EST) Temp. Dew Point Humidity Pressure Visibility Wind Dir Wind Speed Gust Speed Precip Events Conditions
12:13 AM 66.9 °F 66.9 °F 100% 30.06 in 7.0 mi Calm Calm - N/A   Partly Cloudy
12:25 AM 66.0 °F 66.0 °F 100% 30.06 in 1.8 mi Calm Calm - N/A   Partly Cloudy
12:27 AM 66.0 °F 64.9 °F 96% 30.06 in 1.0 mi Calm Calm - N/A   Mist
12:38 AM 64.0 °F 64.0 °F 100% 30.05 in 2.0 mi Calm Calm - N/A   Scattered Clouds
12:40 AM 64.0 °F 64.0 °F 100% 30.05 in 3.0 mi Calm Calm - N/A   Partly Cloudy
12:53 AM 66.0 °F 64.9 °F 96% 30.05 in 5.0 mi Calm Calm - N/A   Scattered Clouds
12:57 AM 66.0 °F 64.9 °F 96% 30.06 in 3.0 mi Calm Calm - N/A   Mostly Cloudy
1:00 AM 66.0 °F 66.0 °F 100% 30.06 in 2.0 mi Calm Calm - N/A   Mostly Cloudy
1:02 AM 66.0 °F 66.0 °F 100% 30.05 in 1.2 mi Calm Calm - N/A   Mostly Cloudy
1:10 AM 64.9 °F 64.9 °F 100% 30.05 in 0.2 mi Calm Calm - N/A Fog Fog
1:19 AM 64.0 °F 64.0 °F 100% 30.05 in 0.2 mi Calm Calm - N/A Fog Fog
1:36 AM 66.0 °F 66.0 °F 100% 30.05 in 0.2 mi Calm Calm - N/A Fog Fog
1:53 AM 66.0 °F 66.0 °F 100% 30.04 in 0.8 mi Calm Calm - N/A   Overcast
1:56 AM 66.0 °F 66.0 °F 100% 30.04 in 1.0 mi Calm Calm - N/A   Overcast
2:00 AM 66.0 °F 66.0 °F 100% 30.04 in 2.5 mi Calm Calm - N/A   Overcast
2:08 AM 66.0 °F 66.0 °F 100% 30.04 in 4.0 mi Calm Calm - N/A   Overcast
2:16 AM 66.9 °F 66.9 °F 100% 30.04 in 2.0 mi Calm Calm - N/A   Overcast
2:20 AM 66.9 °F 66.9 °F 100% 30.04 in 1.5 mi Calm Calm - N/A   Overcast
2:31 AM 66.9 °F 66.9 °F 100% 30.05 in 0.5 mi Calm Calm - N/A Fog Fog
2:53 AM 68.0 °F 68.0 °F 100% 30.04 in 0.2 mi Calm Calm - N/A Fog Fog
3:53 AM 66.9 °F 66.9 °F 100% 30.03 in 0.2 mi Calm Calm - N/A Fog Fog
4:53 AM 66.9 °F 66.9 °F 100% 30.02 in 0.2 mi Calm Calm - N/A Fog Fog
5:53 AM 66.9 °F 66.9 °F 100% 30.02 in 0.2 mi ESE 5.8 mph - N/A Fog Fog
6:53 AM 66.9 °F 66.9 °F 100% 30.02 in 0.5 mi ESE 5.8 mph - N/A Fog Fog
7:53 AM 66.9 °F 66.9 °F 100% 30.03 in 0.2 mi ENE 4.6 mph - N/A Fog Fog
8:50 AM 66.2 °F 66.2 °F 100% 30.05 in 1.0 mi ENE 4.6 mph - N/A   Mist
8:53 AM 66.9 °F 66.9 °F 100% 30.05 in 1.0 mi NE 4.6 mph - N/A   Overcast
9:07 AM 66.9 °F 66.9 °F 100% 30.06 in 2.0 mi NE 4.6 mph - N/A   Overcast
9:14 AM 66.9 °F 66.9 °F 100% 30.07 in 3.0 mi ENE 5.8 mph - N/A   Overcast
9:25 AM 66.9 °F 66.9 °F 100% 30.07 in 2.0 mi NNE 5.8 mph - 0.00 in Rain Light Rain
9:27 AM 66.9 °F 66.9 °F 100% 30.07 in 1.5 mi North 6.9 mph - 0.01 in Rain Light Rain
9:42 AM 66.9 °F 66.9 °F 100% 30.07 in 2.0 mi Variable 6.9 mph - 0.04 in Rain Light Rain
9:44 AM 66.9 °F 66.9 °F 100% 30.07 in 3.0 mi ENE 5.8 mph - 0.04 in Rain Light Rain
9:53 AM 66.9 °F 66.9 °F 100% 30.06 in 4.0 mi ENE 4.6 mph - 0.04 in   Overcast
10:02 AM 66.9 °F 66.9 °F 100% 30.07 in 2.0 mi East 4.6 mph - N/A   Overcast
10:21 AM 68.0 °F 68.0 °F 100% 30.07 in 2.0 mi East 5.8 mph - N/A   Overcast
10:31 AM 66.9 °F 66.9 °F 100% 30.07 in 2.5 mi East 6.9 mph - N/A   Overcast
10:53 AM 68.0 °F 68.0 °F 100% 30.05 in 2.0 mi East 8.1 mph - N/A   Overcast
11:14 AM 68.0 °F 68.0 °F 100% 30.05 in 3.0 mi East 6.9 mph - 0.00 in   Overcast
11:53 AM 71.1 °F 69.1 °F 93% 30.03 in 5.0 mi East 4.6 mph - 0.00 in   Overcast
12:16 PM 73.0 °F 69.1 °F 87% 30.02 in 9.0 mi East 3.5 mph - N/A   Overcast
12:24 PM 73.9 °F 69.1 °F 85% 30.01 in 10.0 mi SSE 4.6 mph - N/A   Overcast
12:53 PM 73.0 °F 69.1 °F 87% 29.99 in 10.0 mi ENE 5.8 mph - N/A   Overcast
1:13 PM 75.0 °F 69.1 °F 82% 29.98 in 10.0 mi ESE 5.8 mph - N/A   Mostly Cloudy
1:28 PM 75.9 °F 69.1 °F 79% 29.98 in 10.0 mi Variable 3.5 mph - N/A   Mostly Cloudy
1:53 PM 73.0 °F 68.0 °F 84% 29.97 in 10.0 mi North 9.2 mph - N/A   Overcast
2:53 PM 75.9 °F 68.0 °F 76% 29.95 in 10.0 mi NNE 6.9 mph - N/A   Mostly Cloudy
3:53 PM 75.9 °F 68.0 °F 76% 29.94 in 10.0 mi NNE 6.9 mph - N/A   Scattered Clouds
4:53 PM 73.9 °F 66.9 °F 79% 29.94 in 10.0 mi NE 5.8 mph - N/A   Mostly Cloudy
5:53 PM 70.0 °F 66.0 °F 87% 29.95 in 10.0 mi NNE 6.9 mph - N/A   Partly Cloudy
6:53 PM 68.0 °F 64.9 °F 90% 29.96 in 10.0 mi NNE 4.6 mph - N/A   Mostly Cloudy
7:00 PM 68.0 °F 64.9 °F 90% 29.97 in 10.0 mi NE 6.9 mph - N/A   Mostly Cloudy
7:53 PM 68.0 °F 64.9 °F 90% 29.98 in 10.0 mi NNE 3.5 mph - N/A   Overcast
8:53 PM 69.1 °F 66.0 °F 90% 29.98 in 10.0 mi NE 4.6 mph - N/A   Overcast
9:53 PM 69.1 °F 66.0 °F 90% 29.99 in 10.0 mi ENE 6.9 mph - N/A   Overcast
10:53 PM 68.0 °F 66.0 °F 93% 29.97 in 10.0 mi ENE 8.1 mph - N/A   Overcast
11:53 PM 68.0 °F 66.0 °F 93% 29.96 in 10.0 mi East 4.6 mph - N/A   Overcast